Wind_Speed
25 28 30 31 32 32 30 27 26 25 25 24 24 23 23 23 22 21 20 20 20 20 19 18 17 16 15 15 15 15 14 13 12 11 11 11 11 12 11 10 10 10 10 11 12 12 13 14 15 16 17 15 14 12 10 12 13 10 10 10 10 12 13 14 16 17 17 16 16 17 18 21 23 21 21 22 22 24 25 25 24 23 21 19 18
14 18 21 25 29 31 32 32 30 28 27 26 25 25 25 25 25 24 23 22 22 22 21 20 19 19 18 17 17 17 16 16 14 13 13 13 13 13 12 12 12 12 12 12 13 14 14 15 16 17 18 18 17 13 10 11 10 8 9 11 11 12 13 14 16 17 18 17 16 16 18 20 21 20 20 22 23 24 24 24 24 21 18 16 16
8 10 12 15 19 24 28 31 33 33 32 30 29 28 27 27 27 26 25 24 23 23 23 23 22 21 21 20 19 19 19 18 17 16 15 15 15 14 13 12 12 13 13 13 13 14 15 15 16 18 18 18 18 15 13 13 11 8 10 12 13 14 15 17 18 18 19 19 19 17 16 18 20 20 19 20 22 23 22 23 22 20 17 16 17
6 8 10 11 12 16 20 23 27 32 34 35 35 33 31 28 28 28 27 27 26 25 24 24 24 24 23 23 22 22 21 21 20 18 18 17 17 16 14 13 13 14 14 14 14 14 15 16 16 18 18 17 17 15 13 13 13 11 11 12 12 14 16 18 19 19 19 20 21 20 20 21 22 21 19 19 21 21 20 20 20 18 17 17 16
4 6 9 11 11 13 17 19 21 25 30 33 35 36 36 35 33 30 29 29 29 28 27 27 27 27 26 26 25 25 24 23 22 21 20 20 18 17 16 15 15 15 15 16 16 16 16 17 17 17 17 17 17 15 14 14 14 14 13 13 12 12 14 16 17 18 19 20 21 22 23 24 24 23 21 21 20 19 18 18 18 18 20 20 19
2 4 6 9 10 12 16 19 19 20 22 24 26 28 32 35 37 36 34 32 31 31 31 31 30 29 28 28 28 27 27 26 24 23 23 22 20 18 17 17 17 17 17 17 17 17 17 17 17 17 17 17 17 16 16 16 16 16 15 15 14 15 17 18 19 19 20 20 20 20 20 21 22 24 23 22 21 21 20 20 19 18 17 19 18
3 4 4 5 6 8 12 16 16 16 17 18 18 19 22 26 29 33 35 34 33 34 33 32 32 31 29 30 30 29 28 27 25 25 25 23 21 20 19 18 18 19 18 17 17 18 18 18 18 17 17 16 16 16 17 17 17 17 16 16 16 16 17 19 20 21 21 22 21 20 19 18 18 21 22 21 22 24 23 19 16 13 12 14 15
7 8 8 8 9 10 11 13 13 13 14 14 15 16 18 20 21 23 27 30 31 33 32 31 32 33 32 32 31 31 29 27 26 26 25 23 22 21 20 20 20 20 19 18 18 18 18 19 18 18 17 18 17 17 17 17 17 18 17 17 17 17 17 18 19 20 21 23 23 21 20 19 19 19 19 18 19 19 17 16 17 20 21 21 20
9 9 10 11 13 13 13 13 13 13 13 12 13 14 15 17 18 19 22 24 25 26 26 27 31 34 35 35 35 34 32 30 28 28 26 24 23 22 21 21 21 21 20 19 19 19 19 20 20 19 19 19 19 19 18 18 19 19 19 19 19 19 18 18 18 19 19 21 21 21 20 20 20 19 17 15 15 15 17 20 26 28 27 26 25
8 9 9 11 13 14 14 15 15 16 15 15 14 14 14 16 17 17 18 20 21 22 22 25 30 34 37 38 37 36 34 33 32 30 27 24 23 22 22 22 22 21 20 20 20 20 20 21 22 23 22 21 21 21 20 20 20 21 21 21 21 21 21 21 20 20 20 21 21 21 20 20 19 19 20 20 19 19 20 21 23 24 24 26 26
10 10 11 12 13 14 15 16 17 17 18 18 17 17 16 15 16 17 17 17 20 22 22 24 27 31 36 39 38 37 38 37 33 30 27 24 22 22 22 22 22 21 20 20 19 20 21 22 23 24 24 23 23 23 23 23 23 23 23 23 23 23 24 25 25 24 23 23 23 22 22 22 20 19 21 22 21 20 19 18 19 20 20 21 21
14 14 14 14 14 15 16 16 17 17 18 20 20 20 20 16 14 15 15 16 19 21 22 23 24 29 35 39 39 39 39 36 32 30 27 24 23 22 21 21 21 20 19 19 19 20 22 23 23 24 25 24 24 24 25 26 27 27 27 26 26 26 25 26 27 27 27 27 26 25 24 23 22 20 19 19 20 19 19 19 20 20 20 20 20
18 17 17 17 16 17 17 17 17 18 18 20 21 22 21 18 15 14 14 15 16 19 20 21 24 28 34 37 39 39 37 34 31 29 26 24 23 22 21 21 19 18 19 19 20 21 22 22 23 24 25 26 26 26 26 26 27 29 30 30 29 29 29 28 28 29 29 30 30 31 30 27 25 23 20 19 20 20 20 20 19 19 20 20 20
19 19 19 19 19 19 19 18 19 19 19 20 21 22 21 19 16 13 13 14 16 17 17 18 22 28 32 36 39 39 36 33 30 28 25 23 23 21 20 20 18 17 18 19 20 21 22 22 23 23 24 26 26 27 26 27 28 29 30 30 30 30 30 29 28 28 28 29 31 32 31 30 29 28 24 21 21 21 22 22 22 22 22 22 23
19 20 20 21 21 20 20 20 20 21 21 21 22 23 22 22 19 14 13 16 17 17 16 17 22 28 32 36 39 38 34 30 27 25 23 22 21 19 19 18 17 17 19 20 22 23 23 24 24 24 25 25 27 28 28 28 29 30 30 31 31 30 26 22 21 23 23 24 26 26 24 24 25 26 25 23 23 23 23 23 23 22 22 23 26
19 20 21 21 22 22 22 22 22 22 21 21 23 24 23 25 23 15 13 17 18 19 19 20 23 28 32 37 39 36 31 27 24 22 20 19 18 17 16 16 17 17 19 21 22 24 25 26 25 25 25 26 27 29 29 29 30 31 31 31 31 29 25 21 22 26 26 27 28 28 27 26 26 27 26 25 26 26 25 23 22 22 23 26 27
20 21 21 22 23 24 24 24 23 23 23 21 22 23 24 26 24 17 15 18 18 18 19 20 22 28 33 37 37 32 26 23 21 19 18 16 16 14 13 13 13 15 17 19 20 22 25 27 27 27 27 28 29 30 30 30 31 31 31 31 29 27 24 22 23 26 28 29 31 32 34 36 35 35 34 33 33 31 31 29 24 23 27 29 28
21 21 22 23 25 25 26 25 25 25 24 23 22 23 25 25 21 16 16 18 17 17 18 20 23 28 33 35 32 27 22 19 17 16 14 14 13 12 10 10 11 13 15 16 17 20 23 26 28 30 30 30 31 33 32 30 30 30 30 27 25 24 22 21 22 22 24 26 28 28 30 31 33 34 35 36 36 36 39 38 29 25 30 32 29
21 22 24 26 27 27 27 27 27 26 26 25 23 23 25 24 18 14 17 19 18 17 18 21 26 30 32 30 25 21 18 16 14 12 11 11 12 12 11 10 11 13 15 15 16 19 22 24 27 29 31 32 34 36 35 31 30 30 27 23 23 22 20 20 20 21 21 21 22 23 23 23 24 26 26 28 30 32 37 40 32 28 32 33 29
21 22 24 27 29 29 29 28 28 27 27 26 24 24 25 21 15 15 17 18 17 17 19 23 28 30 29 25 21 17 14 11 10 9 9 10 11 13 13 13 14 15 15 16 18 21 22 22 22 24 29 34 37 37 35 33 32 30 26 24 25 25 22 21 22 23 24 24 23 23 24 23 23 24 24 25 26 26 29 31 29 28 31 32 30
22 23 25 27 29 30 29 29 28 27 26 25 25 25 22 17 15 16 18 18 17 17 20 24 28 28 26 22 19 15 11 8 8 8 8 11 13 15 17 17 18 19 20 21 22 23 23 23 21 23 29 35 36 36 34 34 33 31 29 28 29 28 27 27 27 27 28 28 27 26 24 22 21 21 22 23 23 23 24 25 26 27 28 30 30
25 25 25 26 27 27 28 28 26 25 23 23 23 21 18 16 16 18 19 18 18 18 21 26 29 27 23 19 15 12 10 8 8 9 10 13 16 18 19 20 22 24 25 26 26 26 26 25 23 26 31 35 35 34 33 32 31 31 30 30 30 28 28 28 27 26 25 26 26 24 22 20 21 20 20 20 20 20 22 24 25 26 26 27 28
26 27 26 25 24 25 26 25 24 23 21 20 18 18 19 20 19 18 19 19 19 20 24 28 27 23 19 15 12 10 9 8 10 11 13 15 17 19 20 21 23 24 26 27 28 28 28 27 27 29 33 34 33 32 30 28 28 28 27 26 25 25 25 26 25 24 24 23 23 23 22 21 22 21 20 20 19 19 20 21 22 23 24 24 26
26 26 26 24 22 22 21 21 21 21 19 18 19 21 23 22 19 18 19 19 20 24 28 27 23 19 16 12 9 7 7 8 10 11 13 15 17 18 19 21 22 23 24 26 27 28 29 29 29 30 31 31 30 29 27 25 24 24 23 22 22 22 23 22 22 21 22 22 23 23 23 22 22 22 21 20 19 18 18 19 19 21 22 23 24
24 24 24 23 20 19 18 18 20 20 18 19 23 24 23 20 19 21 20 19 24 29 28 24 20 17 13 10 7 6 5 7 9 10 11 12 14 15 16 18 19 21 22 23 25 27 28 29 29 30 29 29 28 26 24 22 22 22 22 20 19 19 19 18 19 19 21 22 22 23 21 20 22 22 22 22 21 20 19 19 20 20 20 22 23
23 23 23 22 20 18 18 18 19 18 18 21 23 21 20 20 21 21 19 24 30 29 25 21 18 15 12 10 8 5 4 4 4 7 8 9 11 13 14 16 18 20 22 24 26 28 29 31 31 31 28 26 24 22 21 20 20 20 19 17 15 16 16 15 16 18 19 20 21 22 21 20 21 20 20 21 22 21 21 21 21 21 20 21 24
24 23 22 21 19 17 17 19 19 18 19 21 20 19 20 21 21 21 26 32 31 25 21 20 18 15 12 10 8 5 2 1 2 4 6 8 10 12 15 17 19 21 23 24 26 28 30 30 29 25 22 20 19 19 19 19 18 16 15 14 14 15 15 16 18 19 20 21 22 23 22 21 21 20 20 20 20 21 23 23 24 24 24 24 25
24 23 21 21 19 17 17 18 18 18 19 19 20 22 22 21 22 26 31 30 27 24 22 20 18 15 13 10 7 5 3 2 3 4 6 7 9 12 14 17 19 21 22 23 25 27 28 25 20 17 16 15 15 15 16 16 15 15 15 15 16 16 17 18 19 21 22 22 23 24 24 22 22 23 22 22 24 26 27 27 28 29 28 26 26
24 23 22 21 20 18 18 18 17 19 19 19 19 20 21 24 29 30 28 25 24 24 21 19 16 15 13 10 7 5 3 2 3 5 7 9 11 13 15 17 18 20 22 24 26 27 24 17 14 14 14 14 15 15 15 15 16 16 16 16 17 17 17 18 19 21 22 22 23 24 25 25 25 26 25 27 30 31 31 30 31 30 28 26 26
24 23 22 21 20 19 19 18 16 18 20 21 23 25 28 30 29 28 25 22 21 19 17 16 16 13 11 9 7 5 2 2 5 8 10 11 13 14 15 17 19 21 22 24 25 22 17 13 14 14 14 15 16 16 16 16 17 17 17 17 17 17 18 19 21 22 23 24 25 26 27 27 26 25 26 29 31 31 30 30 29 28 27 27 27
24 23 22 23 22 21 20 18 17 22 27 31 34 36 34 30 25 23 21 20 19 18 16 15 13 11 8 7 5 4 4 6 8 10 12 13 14 15 16 18 19 20 21 23 21 16 12 13 14 14 14 15 16 16 17 17 18 17 17 17 17 17 18 19 21 21 23 24 25 26 26 26 26 27 28 30 31 30 29 27 26 25 26 26 26
25 24 24 24 24 22 21 21 26 34 37 38 37 36 34 31 28 24 21 20 19 18 15 12 10 8 6 4 4 4 6 7 9 11 12 13 14 16 17 17 17 17 19 19 15 12 12 13 14 14 15 16 16 17 18 18 18 17 17 18 18 18 18 19 20 22 23 24 25 25 26 26 28 29 29 29 29 29 29 27 26 26 25 25 25
24 24 24 23 23 23 24 28 35 38 37 35 33 32 32 32 31 28 26 22 20 17 13 10 8 5 3 3 3 5 6 8 10 11 13 14 15 16 16 16 17 20 20 15 11 11 12 13 13 14 15 16 17 18 18 18 17 17 17 19 21 21 21 21 21 22 24 25 25 26 26 26 27 27 27 28 28 29 30 29 28 27 26 25 26
22 22 22 21 23 26 32 38 39 36 34 32 31 32 31 30 29 29 27 23 19 16 12 9 6 4 2 2 3 5 7 9 11 12 14 15 14 14 16 17 17 18 17 13 11 12 13 13 14 15 15 16 17 18 18 18 17 17 20 23 24 24 24 23 22 23 24 24 24 24 25 25 25 25 26 26 27 27 28 28 27 26 25 25 25
22 21 20 22 26 34 39 40 37 34 32 30 30 30 29 27 25 25 23 20 17 15 12 10 7 3 1 2 4 6 8 10 11 13 14 14 14 15 17 15 13 13 13 12 12 13 13 13 14 14 15 16 18 18 18 18 18 19 23 26 27 27 26 24 23 24 24 24 24 24 24 24 24 24 25 26 26 26 27 27 27 26 25 24 24
21 21 22 27 35 40 40 36 33 31 29 28 28 27 26 24 22 20 18 16 14 12 11 8 5 2 1 3 5 7 9 10 11 13 15 15 16 17 15 11 11 12 12 12 13 13 14 13 14 15 15 16 17 18 18 18 19 23 26 27 28 28 27 25 25 25 24 24 24 23 23 22 22 22 23 24 26 26 26 27 26 25 23 22 22
25 30 35 39 41 40 36 32 30 28 27 26 25 24 22 21 18 16 15 13 12 11 9 6 3 1 1 3 5 6 7 9 11 15 18 19 18 16 12 11 12 12 13 14 14 14 14 13 13 14 15 16 17 17 17 18 22 25 27 27 28 28 27 26 25 24 23 23 23 21 21 20 20 20 20 23 25 25 26 26 25 23 22 20 21
37 40 42 40 38 35 32 30 29 27 24 22 21 20 19 17 14 13 13 11 10 10 8 5 3 2 0 2 4 6 8 10 12 14 16 16 14 12 11 12 13 12 13 14 15 15 15 14 13 14 15 16 18 19 20 21 25 27 27 28 29 28 27 27 26 24 23 22 21 19 19 19 18 17 18 20 22 23 24 24 22 20 19 19 19
39 38 36 34 31 28 26 27 28 26 23 21 20 20 18 15 13 12 11 10 9 9 8 6 5 4 4 3 2 4 5 6 6 8 9 10 10 10 10 12 12 13 13 14 15 15 16 15 15 15 16 18 20 22 23 25 26 27 28 29 30 29 28 27 26 25 23 21 20 19 18 18 17 16 16 18 20 21 21 21 19 17 17 18 17
33 31 29 27 24 23 22 24 25 25 23 20 19 17 14 12 11 10 9 9 9 8 7 6 6 5 5 3 2 1 1 2 3 6 8 10 9 9 10 11 12 12 13 14 16 16 16 16 16 17 18 20 22 25 26 26 26 27 29 30 30 30 29 28 27 26 24 22 20 19 17 16 15 15 15 17 18 17 17 17 16 14 15 15 15
28 26 25 23 21 21 23 24 24 23 21 18 15 13 11 9 9 9 9 9 8 7 6 6 6 5 4 4 4 3 2 2 4 6 9 11 9 9 10 11 12 12 13 14 16 16 16 16 17 18 19 23 26 26 26 25 26 28 29 30 30 30 29 28 27 25 23 22 19 17 15 13 12 12 13 13 13 13 13 13 12 11 12 14 14
24 23 22 22 21 22 24 24 22 20 18 15 13 11 9 8 8 9 9 8 7 6 6 5 5 5 5 5 6 6 4 4 5 7 10 11 11 10 10 10 11 13 14 13 15 16 16 16 17 19 22 26 28 27 26 26 27 28 29 30 31 31 30 29 27 25 23 21 18 15 13 10 9 8 8 8 8 9 10 10 10 10 11 13 14
18 21 23 24 24 23 23 22 20 17 15 12 10 9 9 9 9 9 8 8 7 6 5 4 4 5 5 6 6 6 6 6 7 8 10 12 13 14 14 12 13 16 15 13 14 16 16 16 18 22 25 28 29 28 27 26 27 28 30 31 31 31 31 29 27 25 23 20 16 13 10 8 6 5 4 5 6 8 9 10 10 12 12 12 12
17 21 24 24 23 22 21 19 16 13 11 10 9 9 9 9 9 9 8 7 6 5 4 3 4 5 5 5 6 6 6 7 8 9 10 11 13 16 17 16 17 19 17 13 14 16 17 17 21 25 27 28 29 28 28 27 27 28 29 30 31 32 31 30 27 25 22 19 15 12 10 8 6 4 2 5 6 7 9 9 10 11 10 9 8
18 22 23 23 22 21 18 15 12 10 9 10 10 9 8 8 8 8 7 6 4 3 2 2 3 4 4 4 5 6 6 7 8 9 10 11 13 15 17 17 18 20 18 15 15 16 17 18 22 26 27 28 29 29 29 29 28 28 28 29 30 31 31 29 26 24 21 19 15 13 11 9 7 4 1 4 5 6 6 7 7 7 7 7 8
19 22 21 21 21 19 15 12 10 9 9 9 9 8 7 7 6 6 4 3 2 1 1 2 3 3 3 4 4 5 5 6 8 9 9 10 12 15 17 16 16 18 19 18 17 16 17 19 22 25 26 27 28 29 30 30 30 29 29 28 29 30 30 28 25 22 20 18 15 13 11 9 7 5 2 2 3 4 3 4 4 4 5 7 11
19 19 18 17 17 14 11 9 9 8 8 7 7 6 6 6 5 4 2 1 1 1 2 3 3 3 3 3 4 5 5 5 7 8 9 9 11 14 16 16 15 17 19 20 18 16 17 20 23 25 26 27 27 28 29 30 30 29 29 28 29 30 29 26 24 22 20 17 14 12 11 9 7 6 4 2 2 3 3 3 3 4 7 10 14
16 15 15 14 12 10 9 9 9 8 7 6 5 4 4 4 3 1 1 2 2 3 3 3 3 3 3 3 4 5 5 5 6 7 8 9 11 14 15 15 15 15 18 20 19 17 18 20 22 25 26 27 26 27 27 28 29 28 28 28 29 29 28 26 23 21 20 17 14 13 11 10 8 7 6 4 3 3 4 5 6 7 10 13 18
14 13 12 11 10 9 8 8 7 6 5 5 4 3 3 2 0 1 2 2 2 3 3 3 3 3 3 3 3 4 4 4 5 6 6 8 10 14 15 14 14 14 17 19 19 18 18 19 21 23 25 26 25 25 26 27 28 28 27 27 28 29 28 26 24 22 20 18 15 13 12 10 9 9 8 6 4 3 5 6 8 10 13 16 20
11 11 10 9 8 7 7 6 5 5 5 4 3 2 1 0 1 1 1 2 2 3 3 4 3 3 3 3 3 3 3 3 4 5 5 7 10 13 15 14 13 13 16 18 18 18 18 18 18 21 24 25 24 25 25 27 28 28 26 25 26 28 28 27 24 22 21 19 16 13 11 10 9 9 9 7 5 5 7 9 11 12 14 18 21
10 10 9 8 7 6 6 5 5 4 3 2 1 0 1 1 1 1 1 2 2 3 4 4 4 3 3 3 3 3 3 3 3 3 4 6 9 12 14 14 12 13 15 17 17 18 19 18 18 19 22 24 24 25 26 26 27 27 25 23 24 27 28 27 25 23 21 20 17 14 12 10 9 9 9 8 7 8 9 11 13 15 16 18 21
Wind_Direction
242 242 241 237 234 234 234 232 232 234 235 236 238 240 241 243 245 245 245 245 247 249 248 249 250 249 249 251 252 252 253 252 252 254 260 264 269 275 279 285 291 300 308 315 322 328 334 336 335 335 337 337 336 335 328 322 326 324 309 301 291 282 282 279 278 281 284 284 283 284 285 285 288 289 289 288 286 286 288 289 287 287 285 279 273
249 252 250 247 243 242 241 240 239 240 241 241 241 243 244 244 245 246 246 245 247 249 250 250 251 251 251 252 253 254 255 255 255 254 257 261 265 269 274 279 283 288 297 307 315 321 327 330 330 330 331 331 332 332 318 310 314 306 293 296 294 287 284 283 283 285 288 289 287 287 289 290 290 290 289 287 285 286 287 288 288 288 285 276 268
235 243 248 249 248 246 248 248 245 244 244 245 246 248 248 248 247 246 246 246 246 248 249 250 251 250 251 251 252 253 254 256 257 257 258 263 265 267 270 273 276 279 286 295 304 311 318 323 324 324 326 327 326 325 317 311 309 294 283 289 292 291 290 288 286 286 289 291 291 291 290 290 292 294 293 290 290 290 287 285 285 284 278 271 269
229 235 242 248 248 243 248 255 255 249 246 246 247 250 251 252 252 249 248 248 248 247 247 249 250 249 248 249 249 251 254 257 259 259 260 262 265 270 274 275 277 278 281 286 292 299 307 314 317 319 321 322 320 319 313 306 303 295 287 289 293 294 294 293 291 290 288 290 291 292 292 293 295 297 295 293 294 295 292 288 284 282 277 271 269
238 242 248 255 255 245 242 250 255 253 250 249 249 251 252 254 255 254 252 251 250 249 247 247 247 246 247 247 247 251 254 257 259 259 258 261 265 271 277 280 283 285 286 287 290 295 301 308 313 315 317 318 317 314 307 301 298 293 286 283 281 282 284 286 287 286 284 284 286 290 293 295 296 296 295 296 296 294 293 289 284 279 276 273 271
281 257 255 260 261 256 251 251 254 254 254 254 253 253 254 255 257 257 255 254 253 250 247 245 244 244 245 246 246 249 252 254 255 255 255 259 264 270 276 281 285 288 289 291 292 295 300 306 309 312 315 316 315 313 309 306 303 298 293 287 282 277 276 278 281 281 281 280 282 285 288 290 292 294 296 297 295 294 293 293 293 289 282 279 277
297 279 277 277 268 262 258 255 257 257 256 255 256 255 254 256 257 257 256 255 254 252 250 248 246 244 243 244 245 246 248 248 248 249 252 257 262 268 274 280 284 286 288 291 292 295 300 304 308 311 312 312 312 311 310 308 305 302 298 293 289 284 281 282 282 282 282 283 283 283 283 284 285 288 292 294 293 295 297 297 294 289 280 274 271
271 274 276 279 276 273 268 262 261 262 260 257 257 255 253 252 251 255 258 256 254 254 253 252 249 245 240 240 242 243 243 241 240 244 249 254 259 264 270 275 280 283 287 289 291 295 300 304 307 309 310 310 309 308 307 305 302 299 295 290 285 282 280 280 280 281 282 283 284 285 284 284 283 284 289 291 291 293 291 284 281 282 282 279 274
276 282 284 284 282 282 282 278 276 278 276 270 264 259 255 251 248 250 255 256 255 254 252 249 246 243 240 238 238 239 238 237 238 242 247 251 255 261 267 272 276 278 282 285 289 294 299 302 304 305 307 307 306 305 305 304 301 298 295 290 284 280 277 275 274 275 276 277 279 281 282 282 282 283 283 281 281 282 279 278 283 288 290 287 283
300 298 296 293 291 291 292 289 288 288 284 281 277 271 263 256 252 248 245 246 249 248 244 243 241 241 240 238 236 236 236 237 240 244 247 250 255 262 267 270 272 274 277 281 286 291 296 300 302 303 305 305 304 304 304 303 301 299 297 293 287 282 276 272 269 269 270 272 273 274 275 275 275 278 279 279 279 280 281 283 285 287 288 288 287
307 304 300 295 293 293 293 293 293 292 289 286 283 281 276 263 253 251 244 241 246 246 244 243 241 239 240 238 236 235 236 239 242 244 245 247 253 260 265 267 270 272 275 278 284 290 295 298 301 303 306 307 307 307 307 304 302 299 296 293 289 285 281 277 273 269 267 268 269 269 270 270 271 271 274 278 280 280 281 281 280 281 281 282 283
307 305 302 299 297 294 292 290 290 290 289 288 285 286 284 271 254 251 247 242 247 250 249 248 244 237 235 234 234 235 238 240 240 239 240 244 250 257 262 266 270 273 277 281 286 291 294 298 301 303 305 306 307 308 308 308 306 303 300 297 293 289 285 281 277 273 269 267 266 266 265 267 270 269 269 272 275 277 277 276 276 277 275 273 272
309 308 306 304 302 298 294 292 289 286 285 285 285 285 284 275 257 249 246 242 244 247 250 251 247 240 236 234 234 236 237 236 234 235 238 244 250 255 261 266 269 274 279 284 289 293 296 300 303 305 307 308 310 311 311 310 309 306 304 302 299 296 292 287 283 278 272 267 264 263 262 263 264 263 263 264 268 272 275 275 275 273 271 270 270
311 310 309 308 305 301 297 294 290 287 283 282 282 282 281 275 261 249 248 246 240 240 245 246 245 244 239 234 232 234 233 231 230 234 239 245 251 255 258 263 269 275 282 288 293 296 299 302 305 308 309 310 311 311 310 309 307 305 303 301 299 297 294 290 287 284 279 274 271 268 266 264 263 262 260 261 265 268 269 271 271 270 270 268 266
312 311 310 307 304 301 298 295 291 289 285 282 280 279 279 276 268 256 252 254 246 239 242 246 247 246 238 231 230 232 230 227 229 234 238 244 250 253 257 266 276 283 288 293 297 299 301 303 306 309 310 310 310 308 307 307 306 304 302 300 298 296 290 282 278 276 272 270 272 273 269 265 263 262 259 257 260 261 263 267 269 268 270 269 266
308 309 308 305 301 298 297 295 292 290 286 282 279 277 276 276 273 261 258 264 253 239 240 248 248 243 234 229 230 229 226 224 226 231 236 242 249 255 265 278 286 290 295 299 301 302 303 304 307 309 309 308 307 304 304 306 305 303 302 300 298 294 287 277 274 275 270 262 258 257 257 257 258 257 254 251 250 249 252 259 263 265 269 270 269
304 305 303 300 298 296 295 294 291 289 286 281 278 276 275 275 271 259 258 266 259 245 243 245 242 238 233 229 225 221 217 218 223 228 234 242 252 262 274 283 285 288 294 298 299 301 302 305 308 309 308 307 305 304 305 306 305 303 302 298 294 289 284 279 277 278 279 274 267 260 258 257 257 256 253 250 249 246 248 254 257 259 264 266 266
301 301 297 296 296 295 294 292 290 288 285 281 276 274 274 273 265 255 256 260 254 247 245 242 239 235 230 224 218 213 212 214 219 228 236 247 258 266 275 281 280 283 289 292 293 296 299 304 308 310 309 307 306 306 307 307 306 304 300 295 290 284 281 279 277 276 277 278 278 276 273 270 267 264 259 255 252 247 246 250 255 257 259 260 262
297 295 294 294 295 294 294 291 287 284 282 280 275 272 272 269 258 248 254 254 246 242 241 239 234 225 217 211 206 203 205 209 217 231 243 255 265 269 276 282 282 283 287 288 289 293 298 302 306 308 307 306 305 307 308 308 307 304 298 290 285 282 281 280 279 277 274 273 274 276 277 277 275 272 269 264 260 253 249 250 251 251 254 255 256
292 290 291 294 294 294 293 291 287 281 276 274 272 268 267 264 250 243 249 249 243 241 241 238 228 214 202 195 191 190 196 207 221 236 248 256 264 272 279 284 284 285 288 290 292 296 298 298 300 300 299 299 302 305 307 307 306 302 295 286 284 284 283 279 274 270 269 269 269 269 269 270 269 267 265 263 261 259 256 253 249 246 249 251 251
287 287 288 290 292 292 292 291 287 278 271 267 265 262 259 252 241 241 246 246 243 242 237 226 211 197 189 189 191 194 200 210 220 231 246 257 267 277 284 286 287 288 291 294 295 297 296 296 296 292 290 294 300 303 304 303 302 297 291 287 286 286 283 279 275 271 269 268 269 269 269 269 267 266 264 263 259 256 254 251 247 245 245 247 248
284 285 284 285 287 288 289 289 283 273 265 260 257 254 249 243 239 241 243 244 244 237 220 204 194 187 186 188 189 190 192 201 219 234 250 265 275 284 289 291 292 295 296 297 297 296 295 295 292 287 289 295 300 301 301 300 297 294 290 289 288 286 282 279 276 273 271 270 269 268 266 265 265 264 263 262 260 257 254 250 247 246 245 246 247
280 281 279 279 280 281 285 287 279 267 259 254 251 246 243 242 238 235 237 242 237 217 198 188 183 179 178 175 175 186 195 211 236 251 265 276 283 288 292 294 295 296 296 296 296 297 296 294 291 291 295 298 299 298 298 297 294 292 291 289 286 283 281 277 273 270 269 268 267 265 264 264 264 264 262 261 261 259 256 253 249 248 247 247 246
277 276 275 274 273 275 281 281 271 262 257 252 245 239 239 240 234 229 234 235 218 195 182 176 171 167 166 167 175 195 216 239 257 268 278 283 287 290 292 293 294 294 295 296 298 299 298 296 296 298 300 300 299 300 302 302 301 300 298 294 289 285 280 274 270 269 267 266 265 265 265 265 265 265 265 264 264 261 258 256 252 249 248 247 247
269 268 269 268 265 268 273 271 265 262 254 245 241 239 238 235 229 230 231 216 194 179 170 165 163 160 159 159 163 187 231 260 274 281 283 283 285 287 289 292 295 298 302 304 306 308 308 308 308 309 308 307 307 309 309 309 312 311 309 306 299 290 281 273 270 268 266 265 265 265 265 266 268 269 269 267 266 262 257 257 257 253 249 246 246
264 263 262 261 259 262 266 266 262 254 243 240 242 241 234 227 228 229 211 185 175 169 160 156 154 154 154 154 157 179 231 260 276 289 292 294 296 299 304 308 312 317 319 319 319 319 318 317 317 316 315 315 314 314 313 314 317 317 316 314 305 293 284 277 273 270 267 266 267 266 266 268 269 269 269 267 265 261 256 256 256 254 250 248 247
260 258 257 256 255 256 258 258 254 247 242 242 240 233 227 227 224 207 183 171 167 163 156 152 150 149 151 154 155 160 180 198 236 282 299 308 312 317 322 325 326 328 326 322 320 319 318 317 317 316 316 315 314 315 316 316 316 312 309 304 295 287 282 276 273 272 270 269 269 269 269 270 269 268 267 264 260 259 258 257 255 254 255 253 249
256 254 253 251 248 247 248 250 250 248 246 240 232 228 223 211 191 174 166 162 157 152 151 151 151 147 142 137 133 130 142 210 267 303 319 326 330 331 331 331 330 328 324 321 321 320 319 318 316 314 313 311 310 309 309 307 304 299 297 295 290 286 282 277 274 273 271 269 270 271 271 270 269 267 265 262 261 262 263 262 260 261 260 255 249
254 254 252 246 243 243 245 248 250 247 236 222 212 207 193 172 159 154 153 153 153 152 152 149 146 143 137 129 124 135 168 233 318 348 351 349 346 342 338 336 333 330 328 328 326 325 323 319 313 312 311 309 308 307 306 304 302 299 296 295 292 289 285 281 279 277 276 272 269 268 268 269 269 268 266 264 266 268 269 267 265 264 260 253 248
256 256 250 241 237 238 240 244 241 227 210 190 172 162 156 152 149 147 148 150 150 149 143 136 132 132 131 129 130 141 148 25 11 10 6 1 354 347 343 341 339 337 335 332 329 326 322 316 312 312 311 310 309 309 308 306 304 302 300 296 292 290 287 285 285 286 284 279 272 270 270 270 270 269 266 267 270 272 272 269 267 262 255 250 248
252 249 242 236 234 232 234 231 208 182 168 158 151 147 147 146 143 139 137 136 134 132 130 127 127 127 126 123 119 102 63 34 21 15 10 3 354 349 347 347 346 343 337 334 333 328 318 313 312 311 309 309 309 308 309 308 306 305 303 300 297 293 289 287 288 290 289 285 280 276 275 273 271 271 272 274 275 275 272 269 265 258 252 249 248
245 242 240 237 232 228 223 207 180 163 155 151 148 146 145 143 140 139 140 138 136 133 128 123 120 117 113 107 87 64 45 29 21 16 10 3 357 353 351 351 352 350 345 342 338 327 316 313 311 310 309 309 308 308 309 308 307 306 305 303 302 300 294 291 291 291 289 288 285 282 280 278 277 278 278 277 275 274 272 269 264 259 254 250 247
241 239 235 229 224 217 200 177 162 156 153 150 146 143 143 143 143 145 147 145 140 136 131 126 121 115 112 96 62 44 31 23 19 13 8 5 0 354 351 355 358 359 358 354 338 322 318 314 310 310 309 307 308 309 308 307 306 306 307 309 310 308 305 302 298 296 294 293 292 289 287 284 283 282 279 276 273 272 271 270 266 261 254 250 249
229 228 224 217 208 192 172 159 154 152 151 149 148 147 148 149 149 147 147 147 146 147 150 155 157 149 132 77 40 31 26 20 14 9 7 5 359 357 3 7 4 357 354 348 331 322 322 317 313 313 310 308 309 309 308 308 307 308 313 318 319 318 315 310 304 302 302 299 295 291 289 286 284 281 277 275 274 272 270 268 265 261 255 251 249
216 216 215 203 184 166 155 151 150 149 148 149 152 152 152 152 150 147 146 148 152 158 167 175 175 162 109 39 27 26 24 17 8 4 3 358 358 8 16 15 3 351 345 339 332 326 322 318 316 316 313 312 313 312 310 311 311 314 321 325 325 324 322 316 311 309 307 303 299 294 290 287 283 280 277 275 272 269 267 266 263 259 256 252 246
195 188 178 168 158 150 147 147 146 145 146 148 148 150 151 151 151 151 151 153 159 165 173 179 175 155 65 21 19 20 20 15 7 3 1 0 8 19 18 2 350 349 345 339 334 329 324 321 319 318 318 317 316 315 313 312 315 323 328 330 330 328 326 322 318 315 312 308 304 300 296 291 288 284 280 275 271 267 265 264 261 258 256 253 246
154 149 144 142 142 143 144 143 141 141 143 143 143 148 152 152 153 155 157 162 166 167 172 183 184 155 39 12 14 16 18 15 8 5 7 10 14 17 9 350 346 348 343 340 338 334 329 326 321 319 319 319 318 319 316 316 323 330 334 334 334 332 329 326 323 320 317 314 310 305 302 297 291 285 279 272 269 266 265 264 259 254 253 250 243
132 133 134 136 139 140 142 142 142 142 143 143 145 149 152 153 153 154 159 169 172 167 171 189 200 184 240 342 354 5 16 18 9 4 9 14 12 3 354 350 348 345 343 343 341 336 333 330 326 323 322 322 325 326 325 327 332 336 337 337 336 335 333 331 328 325 322 318 313 311 308 303 297 291 282 274 269 264 262 261 255 248 247 246 239
129 132 134 135 137 139 142 145 148 148 147 147 146 145 145 149 153 156 166 175 172 166 173 183 179 179 197 226 292 341 5 11 358 350 2 11 5 354 351 351 347 344 345 344 341 340 338 334 330 329 328 329 332 335 336 338 339 339 339 338 337 337 336 334 331 330 327 323 320 318 315 310 305 297 285 275 270 264 258 254 249 243 241 240 235
132 134 137 137 136 136 139 143 147 149 147 144 141 141 144 150 156 162 169 170 167 170 176 175 178 196 217 232 257 289 323 327 324 338 355 2 359 354 352 352 348 346 345 344 342 342 339 336 336 338 337 337 341 343 343 343 341 340 340 339 339 339 340 338 335 333 330 327 326 323 318 314 309 298 283 272 266 259 250 244 241 238 234 229 227
131 135 139 139 138 138 141 146 149 150 148 145 144 148 155 159 161 163 163 164 169 175 172 173 198 234 263 290 305 315 341 346 333 338 347 352 355 354 352 351 349 346 345 344 343 341 339 339 343 344 344 345 348 347 346 345 343 341 341 342 342 343 342 340 338 336 333 332 330 325 320 317 311 298 285 273 259 246 237 234 234 234 229 223 224
131 135 139 141 142 144 147 149 149 150 151 152 154 159 165 165 163 163 164 165 169 171 171 187 233 273 293 297 299 308 325 337 334 337 343 348 354 356 354 351 348 347 347 345 343 342 341 342 345 348 349 350 351 349 347 347 345 342 342 344 345 344 344 342 341 340 338 336 333 328 325 326 318 299 280 261 238 225 223 225 223 221 224 226 228
134 137 140 144 146 146 147 149 151 154 158 161 162 164 168 170 172 177 182 184 184 185 192 214 260 293 299 292 294 300 309 317 323 330 339 347 353 356 355 352 351 353 352 346 343 344 345 346 351 355 356 357 356 353 351 351 348 344 343 345 345 346 346 346 345 344 343 341 338 334 336 340 335 310 266 230 214 210 214 217 216 217 225 231 230
135 141 144 147 149 149 150 153 157 161 166 170 170 170 172 177 183 190 197 202 203 208 223 249 281 300 302 297 297 299 303 309 314 321 332 344 353 356 356 354 355 358 357 349 343 347 349 353 358 1 1 1 359 358 357 357 354 349 346 345 346 348 349 348 347 347 347 346 344 346 351 355 350 327 250 207 202 206 211 216 219 223 229 230 218
143 150 153 154 156 156 157 160 166 172 174 174 175 176 179 185 190 194 199 203 207 217 252 289 307 318 315 308 305 304 306 311 316 324 334 343 351 356 356 355 356 359 0 355 349 349 352 356 360 2 1 1 1 1 1 1 360 356 351 347 346 349 350 349 349 350 351 351 350 351 356 359 356 342 275 193 193 203 212 219 226 230 228 212 194
152 155 157 160 162 163 166 171 175 173 169 169 173 178 182 186 190 193 192 191 194 239 305 317 328 338 334 329 327 323 317 318 325 332 338 345 351 355 358 356 356 359 3 2 357 353 354 358 1 1 359 0 1 3 4 4 2 359 357 353 351 352 352 352 353 356 357 357 356 356 358 2 5 5 15 152 173 181 192 208 215 211 200 188 180
154 154 155 157 161 166 172 172 167 162 163 167 171 175 177 178 178 179 181 198 281 317 322 325 331 338 344 349 349 343 337 336 337 339 345 351 353 355 357 358 358 1 5 6 5 1 359 3 4 2 0 2 4 6 8 7 4 1 359 359 357 355 354 355 1 5 6 3 2 2 4 9 16 26 41 73 118 141 158 173 180 181 181 178 175
148 151 153 157 163 168 167 161 158 159 161 162 163 164 166 165 164 172 268 318 333 340 340 338 338 341 348 358 355 351 355 355 346 346 354 360 357 357 359 360 1 4 7 10 11 9 5 5 6 4 3 6 8 9 8 7 5 3 3 3 1 359 358 2 8 13 13 11 9 10 14 22 32 44 57 68 82 113 140 147 150 161 170 172 172
142 146 148 152 158 161 157 157 160 161 155 152 153 156 157 154 146 332 331 343 354 356 351 352 355 358 3 8 4 1 10 10 356 355 3 4 0 0 1 1 3 7 10 12 16 15 11 8 6 5 6 8 9 8 7 7 6 7 7 7 6 5 6 10 14 18 20 21 19 17 20 29 38 49 63 73 85 112 131 136 142 156 166 168 168
132 134 136 140 146 147 147 151 154 148 142 140 143 142 140 344 338 338 348 0 5 2 1 5 9 9 10 18 23 28 36 34 12 6 13 13 7 4 3 3 7 12 14 15 19 20 18 14 8 6 9 12 10 7 7 8 10 11 12 12 12 13 13 14 18 22 25 27 27 25 28 35 42 53 66 78 95 119 132 139 144 153 161 163 163
118 121 124 128 130 129 129 132 133 130 127 124 111 10 344 351 350 339 341 352 356 355 358 3 8 10 11 18 35 51 62 63 41 25 25 23 15 8 6 6 10 15 18 20 21 24 25 21 11 8 12 13 11 9 10 12 15 16 16 17 20 21 19 18 21 24 28 32 33 34 37 43 51 63 76 89 107 124 135 143 147 150 155 159 159
Height
1504 1505 1507 1510 1511 1512 1514 1515 1516 1517 1518 1519 1520 1521 1522 1523 1524 1525 1526 1527 1527 1528 1529 1530 1531 1531 1531 1532 1532 1532 1533 1533 1534 1534 1533 1533 1533 1533 1533 1533 1533 1533 1533 1532 1532 1533 1533 1532 1532 1531 1531 1530 1530 1529 1529 1528 1527 1527 1526 1526 1526 1525 1524 1524 1523 1522 1521 1521 1520 1519 1519 1518 1517 1517 1517 1516 1516 1515 1515 1515 1515 1514 1514 1515 1515
1503 1504 1505 1506 1508 1510 1512 1513 1515 1515 1515 1517 1517 1518 1520 1520 1521 1523 1523 1525 1525 1526 1527 1528 1529 1530 1530 1530 1530 1531 1531 1531 1532 1532 1532 1532 1532 1532 1532 1532 1532 1531 1531 1531 1530 1530 1530 1530 1530 1529 1529 1528 1528 1528 1528 1527 1526 1526 1526 1525 1524 1524 1523 1522 1520 1519 1518 1518 1517 1516 1516 1515 1514 1514 1514 1513 1512 1512 1512 1512 1511 1511 1512 1512 1513
1502 1503 1504 1505 1505 1506 1509 1511 1512 1513 1513 1513 1514 1516 1517 1518 1519 1520 1521 1522 1523 1524 1525 1526 1527 1528 1528 1528 1529 1529 1529 1529 1529 1530 1530 1530 1530 1530 1531 1531 1531 1530 1530 1530 1529 1529 1529 1528 1528 1527 1527 1526 1526 1526 1526 1525 1525 1525 1524 1523 1522 1521 1520 1519 1518 1517 1516 1515 1514 1514 1513 1512 1511 1511 1511 1510 1509 1509 1509 1509 1508 1508 1509 1509 1510
1500 1501 1503 1503 1503 1503 1505 1507 1510 1510 1510 1510 1511 1512 1514 1515 1516 1517 1519 1520 1520 1521 1522 1523 1524 1525 1525 1526 1526 1526 1527 1527 1527 1527 1527 1527 1527 1528 1529 1529 1529 1529 1529 1529 1528 1528 1527 1527 1527 1526 1525 1525 1524 1524 1524 1523 1523 1523 1522 1522 1521 1520 1518 1517 1516 1515 1514 1513 1512 1511 1511 1510 1508 1508 1508 1507 1506 1506 1505 1505 1505 1505 1506 1506 1506
1499 1500 1501 1502 1501 1501 1502 1505 1508 1508 1508 1507 1507 1508 1510 1512 1513 1514 1516 1516 1517 1518 1519 1519 1520 1521 1521 1522 1523 1523 1524 1524 1524 1525 1524 1524 1525 1525 1526 1526 1526 1527 1527 1526 1526 1526 1526 1525 1525 1524 1524 1523 1523 1522 1522 1522 1521 1521 1520 1520 1520 1519 1518 1516 1515 1514 1513 1511 1510 1509 1508 1507 1506 1505 1505 1504 1503 1503 1502 1502 1502 1502 1502 1502 1502
1498 1499 1499 1499 1499 1500 1502 1505 1506 1506 1506 1505 1505 1505 1506 1508 1509 1511 1512 1513 1513 1514 1515 1516 1517 1518 1518 1519 1519 1520 1520 1521 1522 1522 1522 1522 1522 1523 1523 1523 1524 1524 1524 1524 1523 1523 1523 1523 1522 1522 1521 1521 1520 1520 1519 1519 1518 1518 1518 1517 1517 1517 1516 1515 1513 1512 1511 1510 1508 1507 1506 1505 1504 1503 1502 1502 1501 1500 1499 1499 1498 1498 1498 1498 1498
1498 1499 1499 1499 1499 1501 1503 1503 1503 1503 1503 1503 1503 1503 1503 1504 1505 1506 1507 1509 1509 1509 1511 1513 1514 1515 1515 1515 1516 1517 1517 1518 1519 1519 1519 1520 1520 1521 1521 1521 1521 1521 1521 1521 1521 1520 1520 1520 1520 1519 1519 1518 1518 1517 1517 1516 1515 1515 1515 1515 1514 1514 1513 1512 1511 1510 1508 1507 1506 1505 1504 1503 1502 1501 1500 1500 1498 1497 1496 1496 1495 1496 1496 1495 1495
1498 1499 1499 1499 1499 1500 1501 1500 1500 1500 1500 1499 1500 1500 1501 1502 1503 1503 1503 1504 1505 1505 1507 1509 1510 1511 1512 1512 1513 1514 1514 1515 1515 1516 1517 1517 1518 1518 1519 1519 1519 1519 1519 1518 1518 1517 1517 1517 1516 1516 1516 1515 1515 1514 1514 1513 1513 1512 1512 1512 1512 1511 1511 1510 1509 1508 1506 1505 1503 1503 1502 1501 1500 1499 1498 1498 1496 1496 1495 1494 1493 1492 1492 1491 1491
1497 1497 1497 1497 1497 1498 1498 1497 1497 1497 1496 1496 1497 1497 1499 1499 1500 1500 1500 1500 1501 1502 1503 1505 1506 1507 1507 1507 1508 1509 1510 1511 1512 1513 1515 1515 1516 1516 1516 1517 1517 1517 1516 1516 1515 1515 1514 1514 1513 1513 1513 1512 1512 1511 1511 1510 1510 1509 1509 1509 1509 1508 1508 1507 1506 1505 1504 1503 1501 1500 1499 1498 1498 1497 1497 1496 1495 1494 1493 1491 1489 1488 1487 1487 1486
1495 1495 1495 1495 1495 1495 1495 1495 1495 1495 1494 1494 1494 1495 1496 1497 1497 1497 1496 1496 1497 1498 1499 1500 1501 1502 1503 1504 1504 1505 1506 1507 1508 1510 1512 1513 1514 1514 1514 1515 1515 1514 1514 1514 1513 1512 1512 1511 1510 1510 1510 1509 1508 1508 1508 1507 1506 1505 1505 1505 1505 1505 1504 1504 1504 1503 1502 1500 1499 1498 1497 1496 1495 1494 1493 1493 1492 1491 1490 1488 1487 1486 1485 1483 1483
1493 1493 1494 1494 1494 1494 1494 1494 1493 1492 1492 1491 1491 1492 1493 1494 1494 1494 1493 1493 1493 1493 1495 1496 1497 1498 1500 1500 1500 1501 1501 1502 1505 1507 1509 1511 1512 1512 1512 1512 1513 1513 1512 1511 1511 1510 1510 1509 1508 1507 1506 1506 1505 1504 1503 1503 1502 1502 1501 1501 1501 1501 1500 1499 1499 1499 1498 1497 1496 1495 1493 1492 1492 1492 1490 1489 1489 1488 1487 1486 1485 1484 1483 1481 1480
1491 1491 1492 1492 1492 1492 1492 1492 1491 1490 1490 1489 1489 1489 1489 1490 1491 1491 1491 1490 1490 1490 1491 1492 1493 1495 1496 1497 1497 1497 1498 1500 1503 1505 1506 1507 1509 1510 1510 1510 1510 1511 1510 1509 1509 1508 1507 1507 1506 1505 1504 1503 1502 1501 1500 1499 1497 1497 1496 1496 1496 1496 1496 1495 1494 1494 1494 1493 1491 1491 1490 1489 1488 1488 1488 1487 1486 1485 1484 1484 1482 1481 1480 1479 1478
1488 1489 1489 1490 1490 1489 1489 1489 1488 1488 1488 1487 1487 1486 1486 1487 1488 1488 1488 1488 1487 1487 1488 1489 1490 1491 1492 1493 1494 1494 1495 1498 1500 1502 1503 1504 1506 1507 1508 1508 1508 1508 1507 1507 1507 1506 1505 1504 1503 1502 1501 1499 1499 1498 1497 1496 1494 1492 1491 1490 1490 1490 1490 1490 1489 1489 1489 1488 1486 1485 1485 1485 1484 1484 1485 1484 1482 1482 1481 1480 1480 1479 1478 1477 1475
1487 1487 1487 1487 1487 1486 1486 1486 1486 1485 1485 1485 1484 1484 1484 1484 1484 1485 1485 1485 1484 1485 1485 1486 1487 1488 1489 1490 1491 1492 1494 1496 1498 1499 1501 1502 1503 1505 1505 1505 1505 1505 1505 1504 1504 1503 1502 1502 1501 1500 1498 1497 1496 1495 1494 1493 1491 1489 1488 1486 1486 1485 1484 1483 1483 1483 1482 1482 1480 1479 1479 1480 1479 1479 1480 1480 1479 1479 1478 1477 1476 1475 1474 1473 1471
1485 1484 1484 1484 1484 1484 1483 1483 1483 1482 1482 1482 1482 1481 1481 1480 1480 1481 1482 1481 1481 1482 1483 1484 1484 1485 1487 1488 1488 1489 1492 1494 1496 1497 1499 1500 1501 1502 1502 1502 1503 1503 1502 1501 1501 1500 1499 1499 1498 1497 1496 1494 1493 1492 1491 1490 1488 1486 1484 1483 1482 1481 1480 1479 1479 1478 1478 1477 1475 1474 1475 1475 1474 1474 1475 1475 1475 1475 1474 1473 1472 1471 1469 1467 1464
1483 1482 1482 1481 1481 1481 1480 1480 1480 1479 1479 1479 1479 1479 1478 1477 1477 1478 1478 1478 1478 1479 1480 1480 1482 1483 1484 1485 1486 1488 1491 1492 1494 1495 1496 1497 1498 1499 1499 1500 1500 1500 1499 1499 1498 1497 1496 1495 1495 1494 1493 1492 1490 1488 1487 1486 1484 1482 1480 1479 1478 1476 1476 1476 1475 1473 1473 1472 1471 1470 1470 1470 1469 1468 1468 1469 1469 1468 1468 1467 1467 1467 1465 1462 1460
1480 1480 1479 1478 1478 1477 1477 1477 1476 1476 1476 1476 1476 1476 1475 1475 1474 1475 1475 1474 1475 1476 1477 1477 1479 1480 1481 1482 1485 1487 1489 1491 1491 1492 1494 1495 1496 1497 1497 1498 1498 1497 1497 1497 1496 1494 1493 1492 1491 1490 1489 1488 1487 1485 1484 1482 1480 1478 1476 1475 1473 1472 1472 1472 1470 1468 1467 1465 1465 1465 1464 1464 1464 1463 1463 1463 1463 1464 1464 1461 1462 1464 1462 1459 1457
1477 1477 1476 1475 1475 1474 1474 1473 1473 1473 1472 1473 1473 1472 1472 1472 1472 1472 1472 1472 1472 1473 1474 1475 1476 1477 1479 1481 1484 1486 1488 1489 1490 1491 1492 1493 1493 1495 1495 1496 1496 1495 1495 1495 1493 1492 1490 1488 1487 1486 1485 1484 1482 1480 1480 1479 1477 1475 1472 1470 1469 1468 1468 1467 1467 1465 1464 1461 1459 1458 1458 1458 1457 1456 1457 1457 1458 1460 1458 1455 1457 1460 1457 1454 1454
1475 1474 1472 1472 1471 1471 1470 1470 1469 1469 1469 1469 1469 1469 1468 1468 1469 1469 1469 1468 1469 1470 1471 1472 1473 1475 1478 1481 1483 1485 1486 1487 1488 1489 1490 1491 1491 1492 1493 1494 1494 1493 1493 1492 1491 1489 1488 1486 1484 1482 1480 1478 1477 1475 1475 1474 1473 1470 1468 1466 1464 1463 1463 1463 1462 1461 1460 1458 1456 1455 1453 1453 1452 1451 1450 1450 1451 1452 1451 1450 1452 1453 1450 1449 1450
1471 1470 1469 1468 1468 1467 1467 1466 1466 1466 1465 1465 1466 1465 1465 1465 1466 1466 1465 1465 1466 1467 1468 1469 1471 1474 1477 1479 1481 1483 1485 1486 1487 1487 1488 1489 1489 1489 1490 1490 1491 1490 1490 1489 1488 1486 1485 1484 1483 1480 1476 1473 1472 1471 1470 1469 1467 1465 1463 1461 1459 1458 1459 1458 1457 1456 1454 1452 1451 1450 1449 1448 1447 1446 1445 1445 1445 1445 1444 1444 1445 1445 1444 1444 1445
1468 1467 1466 1465 1464 1463 1463 1463 1462 1461 1462 1462 1462 1462 1462 1462 1463 1462 1462 1463 1463 1464 1465 1467 1470 1474 1476 1477 1479 1481 1483 1485 1486 1486 1486 1486 1486 1487 1487 1487 1487 1487 1486 1485 1484 1483 1482 1481 1480 1478 1473 1470 1469 1467 1465 1464 1462 1460 1458 1455 1454 1453 1453 1451 1450 1449 1448 1446 1445 1444 1444 1443 1443 1441 1441 1440 1440 1440 1439 1439 1439 1439 1439 1438 1439
1463 1463 1462 1461 1460 1460 1459 1459 1458 1457 1458 1458 1458 1458 1459 1459 1459 1459 1460 1461 1461 1462 1464 1467 1470 1472 1475 1477 1479 1480 1482 1484 1484 1484 1484 1484 1484 1484 1485 1485 1484 1484 1483 1481 1481 1480 1478 1477 1476 1473 1469 1466 1465 1463 1460 1458 1456 1454 1452 1450 1449 1448 1447 1445 1444 1443 1442 1441 1440 1439 1439 1439 1438 1437 1436 1436 1435 1435 1434 1434 1435 1435 1434 1434 1434
1459 1458 1458 1457 1457 1456 1455 1455 1454 1454 1453 1454 1455 1455 1455 1455 1455 1456 1457 1458 1459 1461 1464 1466 1469 1471 1474 1476 1478 1479 1481 1482 1482 1482 1482 1482 1483 1482 1482 1482 1481 1480 1479 1478 1477 1476 1474 1472 1470 1467 1464 1462 1460 1458 1455 1453 1451 1449 1447 1445 1444 1442 1441 1440 1439 1438 1437 1436 1435 1434 1434 1434 1433 1432 1432 1431 1431 1431 1430 1430 1431 1431 1430 1430 1429
1455 1454 1454 1453 1453 1453 1452 1451 1450 1450 1450 1451 1451 1452 1451 1451 1452 1454 1455 1456 1458 1461 1463 1466 1468 1471 1474 1476 1477 1478 1479 1480 1480 1481 1481 1481 1481 1481 1480 1479 1478 1477 1476 1475 1473 1471 1469 1467 1465 1462 1460 1458 1455 1452 1450 1448 1446 1444 1442 1441 1439 1437 1436 1435 1434 1433 1432 1431 1430 1429 1428 1428 1427 1427 1427 1427 1426 1426 1426 1426 1426 1426 1425 1425 1425
1451 1450 1450 1449 1449 1449 1449 1448 1447 1447 1448 1448 1448 1448 1448 1449 1450 1451 1453 1455 1458 1461 1463 1465 1467 1470 1473 1475 1477 1478 1478 1479 1479 1480 1480 1480 1479 1478 1478 1477 1476 1475 1473 1471 1469 1466 1464 1461 1459 1457 1454 1452 1449 1447 1445 1443 1441 1439 1438 1436 1435 1433 1432 1431 1430 1430 1428 1427 1426 1425 1424 1423 1423 1422 1422 1422 1422 1422 1421 1421 1420 1420 1420 1420 1420
1447 1447 1446 1446 1446 1446 1445 1445 1445 1445 1445 1444 1445 1446 1446 1447 1448 1449 1451 1454 1458 1460 1462 1464 1467 1469 1472 1474 1476 1477 1478 1479 1479 1478 1478 1477 1477 1476 1475 1474 1473 1471 1469 1466 1464 1461 1459 1456 1454 1451 1449 1447 1445 1443 1441 1439 1438 1436 1434 1433 1432 1431 1430 1429 1428 1427 1425 1424 1423 1421 1420 1420 1419 1418 1418 1417 1417 1417 1416 1416 1416 1415 1416 1415 1415
1443 1442 1442 1442 1442 1442 1442 1442 1442 1442 1442 1442 1443 1444 1444 1445 1446 1447 1450 1453 1456 1459 1462 1465 1467 1469 1471 1473 1475 1476 1478 1479 1479 1478 1476 1476 1475 1474 1473 1472 1470 1468 1466 1464 1461 1458 1456 1453 1450 1448 1445 1444 1442 1440 1438 1437 1435 1433 1432 1431 1430 1429 1428 1427 1426 1424 1422 1421 1419 1418 1417 1416 1415 1414 1414 1413 1412 1412 1412 1412 1411 1411 1411 1411 1410
1438 1438 1438 1438 1438 1438 1438 1438 1439 1439 1440 1441 1441 1441 1442 1443 1445 1448 1451 1454 1456 1459 1462 1464 1467 1468 1470 1472 1473 1475 1477 1478 1477 1476 1474 1474 1473 1472 1471 1470 1468 1466 1464 1461 1459 1456 1452 1449 1447 1445 1444 1442 1440 1439 1437 1435 1434 1432 1430 1429 1428 1426 1425 1424 1422 1420 1419 1417 1416 1414 1413 1412 1411 1410 1410 1409 1408 1407 1407 1407 1406 1406 1406 1407 1406
1433 1433 1433 1434 1434 1434 1435 1435 1436 1437 1438 1438 1439 1440 1442 1444 1446 1450 1453 1456 1458 1460 1462 1464 1466 1467 1469 1471 1473 1475 1476 1476 1475 1474 1472 1472 1471 1470 1469 1467 1465 1463 1461 1458 1455 1452 1449 1447 1446 1444 1442 1440 1438 1437 1435 1433 1431 1429 1427 1426 1424 1423 1421 1420 1418 1416 1415 1413 1412 1410 1409 1408 1407 1406 1405 1404 1403 1402 1402 1402 1402 1401 1402 1402 1401
1428 1428 1429 1430 1430 1431 1432 1433 1435 1435 1435 1436 1437 1440 1444 1447 1450 1452 1455 1457 1459 1462 1463 1464 1466 1468 1470 1471 1473 1474 1474 1474 1473 1472 1470 1469 1468 1467 1466 1464 1462 1460 1457 1455 1452 1449 1447 1446 1445 1443 1441 1439 1437 1435 1432 1430 1428 1426 1424 1422 1420 1419 1417 1416 1414 1412 1410 1409 1407 1406 1405 1403 1402 1401 1400 1399 1398 1398 1398 1397 1397 1397 1397 1397 1396
1423 1424 1425 1426 1427 1428 1430 1431 1432 1433 1434 1436 1438 1440 1444 1448 1451 1454 1456 1458 1460 1463 1464 1466 1468 1469 1470 1471 1472 1472 1472 1471 1471 1470 1468 1467 1467 1465 1464 1462 1459 1457 1455 1452 1450 1448 1447 1445 1443 1441 1439 1437 1435 1433 1430 1428 1425 1423 1421 1419 1417 1416 1414 1412 1410 1408 1406 1404 1403 1401 1400 1398 1397 1396 1395 1394 1393 1393 1393 1393 1393 1393 1392 1392 1392
1418 1419 1421 1422 1423 1426 1428 1429 1431 1433 1435 1437 1439 1441 1443 1446 1450 1454 1458 1460 1462 1464 1465 1467 1468 1469 1470 1471 1471 1471 1471 1470 1469 1468 1467 1466 1465 1463 1461 1460 1458 1456 1454 1451 1449 1448 1446 1444 1442 1440 1438 1435 1433 1431 1428 1426 1423 1421 1419 1417 1415 1413 1411 1408 1406 1404 1402 1400 1398 1396 1395 1394 1392 1391 1390 1390 1389 1389 1388 1388 1388 1388 1388 1388 1387
1413 1415 1417 1419 1421 1423 1425 1427 1431 1434 1436 1438 1441 1444 1446 1448 1450 1454 1457 1460 1462 1464 1466 1467 1469 1470 1470 1471 1471 1470 1470 1469 1468 1467 1466 1464 1463 1461 1460 1458 1456 1454 1452 1450 1448 1447 1445 1443 1440 1438 1436 1434 1431 1429 1426 1424 1421 1419 1417 1414 1412 1409 1407 1405 1403 1400 1398 1396 1394 1392 1390 1389 1388 1387 1386 1385 1385 1384 1383 1383 1383 1383 1383 1383 1383
1409 1411 1414 1416 1419 1422 1424 1428 1431 1435 1438 1441 1443 1446 1449 1451 1452 1454 1456 1459 1461 1463 1465 1468 1469 1470 1470 1470 1470 1469 1468 1468 1467 1466 1465 1463 1462 1460 1458 1456 1454 1453 1451 1449 1448 1446 1443 1441 1439 1436 1434 1432 1429 1427 1424 1422 1419 1417 1414 1411 1408 1406 1403 1401 1399 1396 1394 1392 1390 1388 1386 1385 1384 1383 1382 1381 1380 1380 1379 1378 1378 1378 1378 1379 1379
1406 1409 1412 1415 1418 1421 1425 1429 1433 1436 1441 1444 1446 1448 1450 1452 1455 1456 1457 1459 1461 1464 1466 1468 1469 1469 1469 1469 1468 1468 1467 1466 1466 1465 1464 1463 1461 1459 1456 1455 1455 1454 1452 1449 1447 1445 1442 1440 1437 1435 1432 1430 1427 1425 1422 1419 1417 1414 1411 1408 1405 1402 1400 1397 1395 1392 1390 1388 1386 1384 1382 1381 1380 1379 1378 1377 1376 1375 1374 1374 1374 1374 1374 1375 1376
1404 1408 1411 1415 1419 1423 1429 1433 1435 1439 1443 1446 1448 1450 1452 1454 1457 1458 1460 1461 1463 1465 1467 1468 1468 1468 1468 1468 1467 1467 1466 1466 1465 1464 1463 1461 1459 1457 1456 1456 1455 1453 1451 1448 1446 1443 1440 1438 1435 1433 1431 1428 1426 1423 1420 1417 1414 1411 1408 1405 1402 1399 1396 1394 1391 1389 1386 1384 1382 1380 1378 1377 1375 1374 1373 1372 1371 1370 1370 1370 1370 1370 1370 1371 1372
1405 1409 1413 1418 1423 1427 1432 1436 1438 1441 1445 1448 1450 1452 1454 1457 1459 1460 1461 1463 1464 1466 1467 1467 1467 1467 1467 1467 1467 1466 1466 1465 1464 1463 1462 1460 1458 1457 1457 1456 1454 1452 1450 1447 1444 1441 1439 1436 1434 1431 1429 1427 1424 1421 1418 1415 1412 1409 1406 1403 1400 1396 1394 1391 1388 1386 1383 1380 1378 1376 1374 1372 1371 1370 1369 1367 1366 1366 1366 1366 1366 1367 1367 1368 1370
1410 1414 1419 1423 1427 1431 1435 1438 1441 1444 1447 1450 1452 1454 1456 1458 1460 1461 1462 1463 1464 1466 1466 1466 1467 1467 1467 1467 1466 1466 1465 1464 1463 1462 1461 1460 1460 1459 1458 1456 1453 1451 1449 1446 1443 1440 1437 1435 1432 1430 1428 1425 1423 1420 1417 1413 1410 1407 1404 1400 1397 1394 1391 1388 1385 1382 1380 1377 1374 1372 1370 1368 1367 1365 1364 1363 1362 1362 1362 1362 1363 1364 1365 1366 1367
1417 1421 1425 1429 1432 1435 1438 1441 1443 1446 1449 1452 1454 1456 1457 1459 1460 1462 1463 1463 1465 1466 1467 1467 1467 1468 1468 1467 1466 1466 1465 1465 1465 1464 1462 1461 1461 1459 1457 1455 1453 1450 1448 1445 1442 1439 1436 1434 1431 1429 1426 1424 1421 1418 1415 1411 1408 1405 1402 1398 1395 1391 1388 1385 1382 1379 1376 1374 1371 1369 1367 1365 1363 1362 1361 1360 1359 1359 1359 1360 1360 1361 1362 1363 1364
1424 1428 1431 1434 1436 1439 1441 1444 1446 1449 1451 1453 1455 1457 1458 1460 1461 1462 1463 1464 1465 1466 1467 1468 1468 1467 1467 1466 1466 1466 1466 1466 1465 1464 1462 1460 1459 1457 1455 1454 1452 1449 1446 1444 1441 1438 1435 1433 1430 1427 1425 1422 1420 1416 1413 1410 1407 1403 1400 1396 1393 1389 1386 1383 1380 1377 1374 1371 1368 1366 1364 1362 1360 1359 1357 1356 1356 1356 1357 1357 1358 1359 1360 1361 1362
1429 1432 1435 1437 1440 1442 1444 1447 1449 1451 1453 1455 1456 1458 1459 1460 1462 1463 1463 1465 1466 1466 1467 1467 1467 1466 1465 1465 1464 1464 1464 1464 1463 1462 1461 1459 1458 1456 1454 1452 1451 1448 1445 1443 1441 1438 1435 1432 1429 1427 1424 1421 1418 1415 1411 1408 1405 1401 1398 1395 1391 1387 1383 1380 1377 1374 1371 1368 1366 1363 1361 1359 1357 1356 1355 1354 1354 1354 1355 1356 1357 1357 1358 1359 1360
1434 1436 1438 1440 1442 1444 1447 1449 1451 1453 1454 1456 1457 1459 1460 1461 1462 1463 1464 1465 1465 1466 1466 1466 1465 1464 1464 1464 1463 1463 1462 1462 1461 1461 1459 1458 1457 1455 1453 1451 1450 1447 1445 1442 1440 1437 1434 1431 1429 1426 1423 1420 1417 1413 1410 1406 1403 1400 1396 1392 1389 1385 1381 1378 1375 1372 1369 1366 1363 1361 1359 1357 1355 1354 1353 1353 1353 1353 1354 1355 1356 1356 1357 1358 1358
1437 1439 1440 1442 1444 1447 1449 1451 1452 1454 1455 1456 1457 1459 1460 1461 1462 1462 1463 1464 1464 1465 1465 1464 1464 1463 1463 1462 1462 1461 1461 1460 1460 1459 1458 1457 1455 1453 1452 1450 1449 1446 1444 1442 1440 1437 1433 1431 1428 1425 1422 1419 1416 1412 1409 1405 1402 1398 1394 1391 1387 1383 1380 1376 1373 1370 1367 1364 1362 1360 1358 1356 1354 1353 1353 1352 1353 1353 1354 1354 1355 1355 1356 1356 1357
1440 1441 1443 1444 1447 1449 1450 1452 1453 1455 1456 1457 1458 1459 1460 1461 1461 1462 1462 1463 1463 1463 1463 1463 1462 1462 1461 1461 1460 1460 1459 1459 1458 1458 1457 1456 1454 1453 1451 1449 1447 1445 1443 1441 1439 1436 1433 1430 1427 1424 1421 1418 1415 1411 1408 1404 1401 1397 1394 1390 1386 1382 1378 1375 1371 1368 1365 1363 1360 1358 1357 1355 1354 1353 1353 1352 1352 1353 1353 1353 1354 1354 1355 1355 1356
1442 1443 1445 1447 1449 1450 1452 1453 1454 1455 1456 1457 1458 1459 1459 1460 1461 1461 1462 1462 1462 1462 1462 1462 1461 1461 1460 1459 1459 1458 1458 1457 1457 1456 1455 1454 1453 1452 1450 1448 1446 1444 1442 1440 1438 1435 1432 1430 1427 1423 1420 1417 1414 1411 1407 1403 1400 1397 1393 1390 1386 1381 1377 1374 1371 1367 1365 1362 1360 1358 1356 1355 1354 1353 1352 1352 1352 1353 1353 1353 1354 1354 1354 1355 1355
1444 1445 1447 1448 1450 1451 1453 1454 1455 1455 1456 1457 1458 1458 1459 1460 1460 1461 1461 1461 1461 1461 1461 1461 1460 1459 1459 1458 1458 1457 1457 1456 1456 1455 1454 1453 1453 1451 1449 1448 1446 1444 1441 1439 1437 1434 1432 1429 1426 1423 1420 1417 1414 1411 1407 1403 1399 1396 1393 1389 1385 1381 1377 1374 1370 1367 1364 1362 1360 1358 1356 1355 1354 1353 1352 1352 1352 1352 1352 1353 1353 1354 1354 1355 1356
1445 1447 1448 1450 1451 1452 1453 1454 1455 1456 1457 1457 1458 1458 1459 1460 1460 1461 1461 1461 1461 1460 1460 1459 1459 1458 1458 1457 1456 1456 1456 1455 1455 1454 1453 1453 1452 1451 1449 1447 1445 1443 1441 1439 1436 1434 1432 1429 1426 1424 1421 1417 1414 1411 1407 1403 1399 1396 1392 1389 1385 1381 1377 1374 1370 1367 1364 1362 1360 1358 1356 1355 1354 1353 1352 1352 1352 1352 1352 1353 1353 1354 1355 1356 1357
1447 1448 1449 1450 1452 1453 1453 1454 1455 1456 1457 1457 1458 1458 1459 1460 1460 1460 1460 1460 1460 1459 1459 1458 1458 1457 1457 1456 1455 1455 1455 1454 1454 1453 1453 1452 1452 1450 1449 1447 1445 1443 1441 1439 1436 1434 1432 1429 1427 1424 1421 1418 1415 1411 1407 1404 1400 1396 1392 1389 1385 1381 1378 1374 1370 1367 1365 1363 1361 1359 1357 1356 1355 1354 1353 1353 1353 1353 1353 1353 1354 1355 1356 1357 1358
1448 1449 1450 1451 1452 1453 1454 1455 1456 1456 1457 1458 1458 1459 1459 1460 1460 1460 1459 1459 1459 1459 1458 1457 1457 1456 1456 1455 1455 1454 1454 1453 1453 1453 1452 1452 1451 1450 1448 1447 1445 1443 1441 1439 1436 1434 1432 1430 1427 1425 1422 1419 1416 1412 1408 1404 1400 1396 1392 1389 1386 1382 1378 1375 1371 1368 1366 1364 1362 1360 1359 1357 1356 1355 1355 1354 1354 1354 1354 1355 1355 1356 1358 1359 1360
1450 1450 1451 1452 1453 1454 1455 1455 1456 1457 1457 1458 1458 1459 1459 1460 1459 1459 1459 1459 1458 1458 1457 1457 1456 1456 1455 1455 1454 1453 1453 1453 1452 1452 1452 1451 1451 1450 1448 1447 1445 1443 1441 1439 1436 1434 1432 1430 1428 1426 1423 1420 1417 1413 1409 1405 1401 1397 1393 1390 1387 1384 1380 1376 1373 1370 1368 1366 1364 1362 1361 1360 1359 1358 1357 1357 1356 1356 1356 1357 1358 1359 1360 1361 1363
1451 1452 1453 1454 1454 1455 1456 1456 1457 1457 1458 1458 1458 1459 1459 1459 1459 1459 1459 1458 1458 1457 1456 1456 1456 1456 1455 1454 1454 1453 1452 1452 1452 1451 1451 1451 1450 1450 1448 1447 1445 1443 1441 1439 1437 1435 1433 1431 1429 1427 1424 1421 1418 1415 1411 1407 1403 1399 1396 1392 1389 1386 1382 1379 1376 1373 1370 1368 1367 1365 1364 1363 1362 1361 1360 1360 1359 1359 1360 1360 1361 1362 1363 1364 1366